User: anonymous   Login
Location: Unspecified
(0.0000°N, 0.0000°E)
Time: 05:08:03
(UTC+00:00)
Language:

Landsat 5 - Orbit

View from above orbital plane
View from above orbital plane
View from above satellite
View from above satellite

Ground track
Ground track

The orbit data is extracted from the following two-line orbital elements,

1 14780U 84021A   18196.41457657  .00000157  00000-0  20799-4 0  9993
2 14780  98.0778 321.9250 0089485 315.6880  43.7198 14.91748431834490
Epoch (UTC): 15 July 2018 09:56:59
Eccentricity: 0.0089485
inclination: 98.0778°
perigee height: 530 km
apogee height: 655 km
right ascension of ascending node: 321.9250°
argument of perigee: 315.6880°
revolutions per day: 14.91748431
mean anomaly at epoch: 43.7198°
orbit number at epoch: 83449

The dashed part of the orbit path shows where the satellite is in the earth's shadow,  

DLR